Seletar Airport

Airport
ICAO code: 
WSSL
IATA Code: 
XSP
Summary
ICAO Region: 
APAC
Territory: 
Location: 
Seletar, North-East Region
Serving: 
Seletar
Elevation: 
36 ft
Coordinates: 
Aerial View: 
1° 25' 0.296" N, 103° 52' 2.568" E
Metar
Observation
WSSL 240700Z VRB02KT 9999 FEW022 SCT280 32/22 Q1007
Station
SINGAPORE/SELETA
Date/Time
2022-01-24 07:00:00
Wind speed
02 kts
Lowest cloud amount
few clouds
Temperature
32°C
Dew point
22°C
Humidity
55%
QNH
1007 hPa
Weather condition
n/a

Seletar Airport is a civilian airport located at Seletar, in the northeastern region of Singapore, and is managed by the Changi Airport Group. Originally, the airport was completed in 1928 as a flying Royal Air Force station (RAF Seletar) and was also Singapore's first international airport.

Climatology

Tropical Rainforest climate (Köppen climate classification Af) - almost no distinct seasons, average daily temperature around 27°C throughout the year. Extensive cloud cover and heavy rainfall prevent temperatures from rising much over 33°C. The diurnal temperature change is between 2°C and 5°C which is greater than the annual temperature range of 2°C. Rainfall is heavy and is usually convectional and in the afternoon.

Runways

Designator Length Width Surface Rops
3/21 1592 46 ASP Yes/Yes
Airport map: 
Aerial View: 

Accidents and Serious Incidents at or in the vicinity of WSSL

SKYbrary Partners:

Safety knowledge contributed by: